Weather in Tulpan

Russia / Perm Krai     61°17′20″N   57°33′22″E
temp.,
°C
wind,
m/s
gust,
m/s
humid.,
%
clouds,
%
prec.,
mm/h
press.,
hPa
HPBL,
m
28 february, sun
sun2823:00−22ese23900 0.0 101666
02:00−24ese12910 0.0 101620
05:00−25ene12920 0.0 101620
08:00−25e11930 0.0 101620
11:00−18ese13870 0.0 1016208
14:00−12ese24840 0.0 1016463
17:00−11ene138925 0.0 1016424
20:00−17ese119452 0.0 101720
1 march, mon
mon123:00−19se129026 0.0 101820
02:00−22se11910 0.0 101920
05:00−22s12920 0.0 101920
08:00−23s12940 0.0 101920
11:00−17ssw23920 0.0 1018190
14:00−13sw259129 0.0 1016435
17:00−12ssw489140 0.0 1014528
20:00−15s4129398 0.0 1011429
2 march, tue
tue223:00−14s5149199 0.0 1010543
02:00−15s61489100 0.0 1007521
05:00−15s61392100 0.1 1004494
08:00−15s51394100 0.5 1001526
11:00−14s51194100 1.2 1000522
14:00−13s41094100 0.6 999588
17:00−12s4993100 1.1 998601
20:00−13s31094100 0.2 998549
3 march, wed
wed323:00−13s3895100 0.4 999481
02:00−14sse2795100 0.4 998369
05:00−14sse2696100 0.5 998262
08:00−15sse2497100 0.2 998153
11:00−12s1393100 0.4 998311
14:00−10wsw1189100 0.2 998434
17:00−10wnw1294100 0.4 998327
20:00−12wnw1197100 0.3 99820
4 march, thu
thu423:00−13w1197100 0.6 99920
02:00−13w1197100 0.2 99822
05:00−14w1198100 0.3 99822
08:00−16wsw1198100 0.1 99920
11:00−12wsw139499 0.3 998242
14:00−8wsw249299 0.1 998609
17:00−8sw3591100 0.4 997643
20:00−13s399690 0.1 996206